Mildenhall RAF, United Kingdom

11:39 AM BST on September 25, 2016 (GMT +0100)
Mildenhall Air Base

Weather History for EGUN - October, 2013

Change the Weather History Date:

Monday, October 28, 2013

  Actual Average (EGSC) Record (EGSC)
Temperature  
Mean Temperature 53 °F -  
Max Temperature 60 °F 54 °F 66 °F (2014)
Min Temperature 45 °F 45 °F 30 °F (1997)
Degree Days  
Heating Degree Days 12    
Growing Degree Days 3 (Base 50)    
Moisture  
Dew Point 49 °F    
Average Humidity 79    
Maximum Humidity 94    
Minimum Humidity 63    
Precipitation  
Precipitation 0.74 in - - ()
Sea Level Pressure  
Sea Level Pressure 29.06 in    
Wind  
Wind Speed 16 mph ()    
Max Wind Speed 38 mph    
Max Gust Speed 50 mph    
Visibility 5.8 miles    
Events Rain    
Averages and records for this station are not official NWS values.
T = Trace of Precipitation, MM = Missing Value Source: Averaged Metar Reports

Daily Weather History Graph

Daily Weather History Graph

Search for Another Location

Airport or City:

Trip Planner

Search our weather history database for the weather conditions in past years. The results will help you decide how hot, cold, wet, or windy it might be!

Date:

Astronomy

Oct. 28, 2013 Rise Set
Actual Time 6:46 AM GMT 4:36 PM GMT
Civil Twilight 6:11 AM GMT 5:11 PM GMT
Nautical Twilight 5:31 AM GMT 5:51 PM GMT
Astronomical Twilight 4:51 AM GMT 6:30 PM GMT
Moon No Moon Rise 1:51 PM GMT (10/28)
Length of Visible Light 11h 00m
Length of Day
9h 49m
Waning Crescent, 36% of the Moon is Illuminated
Oct 28
Waning Crescent
Nov 3
New
Nov 10
First Quarter
Nov 17
Full
Nov 25
Last Quarter

Hourly Weather History & Observations

Time (GMT) Temp. Windchill Dew Point Humidity Pressure Visibility Wind Dir Wind Speed Gust Speed Precip Events Conditions
12:13 AM 53.6 °F - 50.0 °F 88% 29.22 in 6.2 mi SSE 9.2 mph - N/A Rain Light Rain
12:32 AM 53.6 °F - 50.0 °F 88% 29.21 in 6.2 mi SSE 4.6 mph - N/A Rain Light Rain
12:40 AM 53.6 °F - 50.0 °F 88% 29.20 in 6.2 mi SSE 6.9 mph - N/A Rain Light Rain
12:41 AM 53.6 °F - 50.0 °F 88% 29.20 in 6.2 mi SSE 6.9 mph - N/A Rain Light Rain
12:45 AM 53.6 °F - 50.0 °F 88% 29.19 in 6.2 mi SSE 6.9 mph - N/A Rain Light Rain
12:49 AM 53.6 °F - 50.0 °F 88% 29.19 in 6.2 mi SSE 8.1 mph - N/A Rain Light Rain
12:53 AM 53.6 °F - 50.0 °F 88% 29.18 in 6.2 mi SE 6.9 mph - N/A Rain Light Rain
12:56 AM 53.6 °F - 50.0 °F 88% 29.17 in 6.2 mi SSE 8.1 mph - N/A Rain Light Rain
12:58 AM 52.9 °F - 49.5 °F 88% 29.18 in 6.2 mi SSE 6.9 mph - 0.09 in Rain Light Rain
1:02 AM 53.6 °F - 50.0 °F 88% 29.16 in 6.2 mi SSE 9.2 mph - N/A Rain Light Rain
1:41 AM 53.6 °F - 50.0 °F 88% 29.11 in 6.2 mi SSE 6.9 mph - N/A Rain Light Rain
1:58 AM 54.0 °F - 50.5 °F 88% 29.09 in 6.2 mi ESE 6.9 mph - 0.12 in Rain Light Rain
2:09 AM 53.6 °F - 50.0 °F 88% 29.06 in 5.0 mi ESE 9.2 mph - N/A Rain Light Rain
2:12 AM 53.6 °F - 50.0 °F 88% 29.06 in 3.7 mi ESE 9.2 mph - N/A Rain Light Rain
2:25 AM 53.6 °F - 51.8 °F 94% 29.04 in 3.7 mi ESE 9.2 mph - N/A Rain Light Rain
2:29 AM 53.6 °F - 51.8 °F 94% 29.03 in 5.0 mi ESE 8.1 mph - N/A Rain Light Rain
2:36 AM 53.6 °F - 51.8 °F 94% 29.02 in 6.2 mi ESE 8.1 mph - N/A Rain Light Rain
2:46 AM 53.6 °F - 51.8 °F 94% 29.01 in 5.6 mi ESE 6.9 mph - N/A Rain Light Rain
2:48 AM 53.6 °F - 51.8 °F 94% 29.01 in 5.6 mi ESE 8.1 mph - N/A Rain Light Rain
2:51 AM 55.4 °F - 51.8 °F 88% 29.01 in 5.0 mi ESE 8.1 mph - N/A Rain Light Rain
2:53 AM 55.4 °F - 51.8 °F 88% 29.00 in 5.0 mi SE 9.2 mph - N/A Rain Light Rain
2:54 AM 55.4 °F - 51.8 °F 88% 29.00 in 5.0 mi ESE 9.2 mph - N/A Rain Light Rain
2:58 AM 54.7 °F - 51.8 °F 90% 29.01 in 5.0 mi SE 10.4 mph - 0.18 in Rain Light Rain
2:59 AM 55.4 °F - 51.8 °F 88% 28.99 in 5.0 mi ESE 10.4 mph - N/A Rain Light Rain
3:11 AM 55.4 °F - 51.8 °F 88% 28.98 in 6.2 mi SSE 10.4 mph - N/A Rain Light Rain
3:12 AM 55.4 °F - 51.8 °F 88% 28.98 in 6.2 mi South 9.2 mph - N/A Rain Light Rain
3:16 AM 55.4 °F - 51.8 °F 88% 28.97 in 5.6 mi SSE 10.4 mph - N/A Rain Rain
3:18 AM 55.4 °F - 51.8 °F 88% 28.97 in 5.6 mi South 10.4 mph - N/A Rain Light Rain
3:45 AM 57.2 °F - 55.4 °F 94% 28.93 in 6.2 mi South 13.8 mph 21.9 mph N/A Rain Light Rain
3:51 AM 59.0 °F - 55.4 °F 88% 28.92 in 6.2 mi SSW 15.0 mph 21.9 mph N/A Rain Light Rain
3:52 AM 59.0 °F - 55.4 °F 88% 28.92 in 6.2 mi SSW 15.0 mph - N/A Rain Light Rain
3:57 AM 59.0 °F - 55.4 °F 88% 28.93 in 6.2 mi SSW 15.0 mph 20.7 mph N/A Rain Light Rain
3:58 AM 59.0 °F - 55.4 °F 88% 28.94 in 6.2 mi SSW 16.1 mph 20.7 mph 0.10 in Rain Light Rain
4:01 AM 59.0 °F - 55.4 °F 88% 28.93 in 6.2 mi SW 18.4 mph 24.2 mph N/A   Overcast
4:03 AM 59.0 °F - 55.4 °F 88% 28.93 in 6.2 mi SSW 15.0 mph 24.2 mph N/A   Overcast
4:04 AM 59.0 °F - 55.4 °F 88% 28.93 in 6.2 mi SSW 15.0 mph 24.2 mph N/A Rain Light Rain
4:09 AM 59.0 °F - 55.4 °F 88% 28.91 in 5.6 mi SSW 17.3 mph 27.6 mph N/A Rain Light Rain
4:20 AM 60.8 °F - 55.4 °F 82% 28.91 in 6.2 mi SSW 27.6 mph 35.7 mph N/A Rain Light Rain
4:24 AM 60.8 °F - 55.4 °F 82% 28.91 in 6.2 mi SSW 25.3 mph 35.7 mph N/A   Overcast
4:26 AM 60.8 °F - 55.4 °F 82% 28.90 in 6.2 mi SSW 25.3 mph 35.7 mph N/A   Overcast
4:29 AM 60.8 °F - 55.4 °F 82% 28.90 in 6.2 mi SSW 25.3 mph 35.7 mph N/A   Overcast
4:31 AM 60.8 °F - 55.4 °F 82% 28.90 in 6.2 mi SSW 24.2 mph 33.4 mph N/A   Overcast
4:32 AM 60.8 °F - 55.4 °F 82% 28.90 in 6.2 mi SSW 25.3 mph 33.4 mph N/A   Overcast
4:37 AM 60.8 °F - 53.6 °F 77% 28.89 in 6.2 mi SSW 20.7 mph 34.5 mph N/A   Overcast
4:40 AM 60.8 °F - 53.6 °F 77% 28.89 in 6.2 mi SSW 20.7 mph 34.5 mph N/A   Overcast
4:44 AM 60.8 °F - 53.6 °F 77% 28.88 in 6.2 mi SSW 23.0 mph 34.5 mph N/A   Overcast
4:46 AM 60.8 °F - 53.6 °F 77% 28.88 in 6.2 mi SSW 24.2 mph 35.7 mph N/A   Overcast
4:47 AM 60.8 °F - 53.6 °F 77% 28.88 in 6.2 mi SSW 23.0 mph 35.7 mph N/A   Overcast
4:48 AM 60.8 °F - 53.6 °F 77% 28.88 in 6.2 mi SSW 23.0 mph 35.7 mph N/A   Overcast
4:58 AM 60.6 °F - 53.6 °F 78% 28.89 in 6.2 mi SSW 23.0 mph 34.5 mph 0.04 in   Overcast
4:59 AM 60.8 °F - 53.6 °F 77% 28.88 in 6.2 mi SSW 24.2 mph 34.5 mph N/A Rain Light Rain
5:00 AM 60.8 °F - 53.6 °F 77% 28.88 in 6.2 mi SSW 25.3 mph 32.2 mph N/A Rain Light Rain
5:02 AM 60.8 °F - 53.6 °F 77% 28.87 in 5.6 mi SSW 28.8 mph 33.4 mph N/A Rain Light Rain
5:04 AM 60.8 °F - 53.6 °F 77% 28.87 in 5.0 mi SSW 28.8 mph 40.3 mph N/A Rain Light Rain
5:05 AM 60.8 °F - 53.6 °F 77% 28.88 in 3.7 mi SSW 25.3 mph 40.3 mph N/A Rain Light Rain
5:06 AM 60.8 °F - 53.6 °F 77% 28.87 in 3.7 mi SSW 24.2 mph 40.3 mph N/A Rain Light Rain
5:09 AM 60.8 °F - 53.6 °F 77% 28.87 in 3.7 mi SSW 20.7 mph 40.3 mph N/A Rain Light Rain
5:11 AM 59.0 °F - 53.6 °F 82% 28.88 in 5.0 mi SSW 21.9 mph 40.3 mph N/A Rain Light Rain
5:13 AM 59.0 °F - 53.6 °F 82% 28.87 in 5.6 mi SSW 28.8 mph 40.3 mph N/A Rain Light Rain
5:15 AM 59.0 °F - 53.6 °F 82% 28.87 in 6.2 mi SSW 24.2 mph 34.5 mph N/A Rain Light Rain
5:17 AM 59.0 °F - 53.6 °F 82% 28.87 in 6.2 mi SSW 25.3 mph 34.5 mph N/A Rain Light Rain
5:18 AM 59.0 °F - 53.6 °F 82% 28.87 in 6.2 mi SSW 25.3 mph 34.5 mph N/A Rain Light Rain
5:22 AM 59.0 °F - 53.6 °F 82% 28.86 in 6.2 mi SSW 25.3 mph 34.5 mph N/A Rain Light Rain
5:23 AM 59.0 °F - 53.6 °F 82% 28.87 in 6.2 mi SSW 24.2 mph 34.5 mph N/A Rain Light Rain
5:24 AM 59.0 °F - 53.6 °F 82% 28.87 in 6.2 mi SSW 24.2 mph 33.4 mph N/A   Overcast
5:31 AM 60.8 °F - 53.6 °F 77% 28.86 in 6.2 mi SSW 20.7 mph 32.2 mph N/A Rain Light Rain
5:42 AM 60.8 °F - 53.6 °F 77% 28.85 in 6.2 mi SSW 26.5 mph 35.7 mph N/A   Overcast
5:58 AM 60.4 °F - 53.2 °F 77% 28.85 in 6.2 mi SSW 20.7 mph 29.9 mph 0.04 in   Overcast
5:59 AM 60.8 °F - 53.6 °F 77% 28.84 in 6.2 mi SSW 21.9 mph 29.9 mph N/A Rain Light Rain
6:00 AM 60.8 °F - 53.6 °F 77% 28.84 in 6.2 mi SSW 23.0 mph 29.9 mph N/A Rain Light Rain
6:02 AM 60.8 °F - 53.6 °F 77% 28.84 in 6.2 mi SSW 23.0 mph 32.2 mph N/A Rain Light Rain
6:03 AM 60.8 °F - 53.6 °F 77% 28.84 in 6.2 mi SSW 20.7 mph 32.2 mph N/A Rain Light Rain
6:07 AM 60.8 °F - 53.6 °F 77% 28.84 in 6.2 mi SSW 21.9 mph 32.2 mph N/A Rain Light Rain
6:09 AM 60.8 °F - 53.6 °F 77% 28.84 in 6.2 mi SSW 21.9 mph 32.2 mph N/A Rain Light Rain
6:16 AM 59.0 °F - 53.6 °F 82% 28.83 in 6.2 mi SSW 18.4 mph 31.1 mph N/A   Overcast
6:21 AM 59.0 °F - 53.6 °F 82% 28.83 in 6.2 mi SSW 21.9 mph 25.3 mph N/A   Overcast
6:22 AM 59.0 °F - 53.6 °F 82% 28.83 in 6.2 mi SSW 24.2 mph 27.6 mph N/A   Overcast
6:25 AM 59.0 °F - 53.6 °F 82% 28.83 in 6.2 mi SSW 18.4 mph 27.6 mph N/A   Overcast
6:35 AM 60.8 °F - 51.8 °F 72% 28.82 in 6.2 mi SW 24.2 mph 41.4 mph N/A   Overcast
6:40 AM 60.8 °F - 51.8 °F 72% 28.81 in 6.2 mi SSW 29.9 mph 41.4 mph N/A Rain Light Rain
6:42 AM 60.8 °F - 51.8 °F 72% 28.81 in 6.2 mi SSW 28.8 mph 39.1 mph N/A   Overcast
6:48 AM 60.8 °F - 51.8 °F 72% 28.80 in 6.2 mi SSW 23.0 mph 38.0 mph N/A   Overcast
6:58 AM 60.1 °F - 51.4 °F 73% 28.81 in 6.2 mi SSW 21.9 mph 29.9 mph 0.00 in   Overcast
7:09 AM 59.0 °F - 51.8 °F 77% 28.80 in 6.2 mi SSW 25.3 mph 33.4 mph N/A   Overcast
7:20 AM 59.0 °F - 51.8 °F 77% 28.81 in 6.2 mi SW 25.3 mph 35.7 mph N/A Rain Light Rain
7:26 AM 59.0 °F - 51.8 °F 77% 28.81 in 6.2 mi SW 24.2 mph 33.4 mph N/A Rain Light Rain
7:31 AM 59.0 °F - 51.8 °F 77% 28.82 in 6.2 mi SW 21.9 mph 36.8 mph N/A Rain Light Rain
7:35 AM 59.0 °F - 53.6 °F 82% 28.82 in 6.2 mi SW 25.3 mph 36.8 mph N/A Rain Light Rain
7:39 AM 57.2 °F - 51.8 °F 82% 28.83 in 3.7 mi WSW 17.3 mph 35.7 mph N/A Rain Light Rain
7:41 AM 57.2 °F - 51.8 °F 82% 28.83 in 3.1 mi West 21.9 mph 35.7 mph N/A Rain Rain
7:42 AM 57.2 °F - 51.8 °F 82% 28.84 in 2.5 mi West 28.8 mph 36.8 mph N/A Rain Rain
7:43 AM 57.2 °F - 51.8 °F 82% 28.84 in - West 35.7 mph 41.4 mph N/A Rain Heavy Rain
7:45 AM 57.2 °F - 51.8 °F 82% 28.85 in 1.7 mi West 33.4 mph 44.9 mph N/A Rain Heavy Rain
7:46 AM 57.2 °F - 51.8 °F 82% 28.86 in 1.5 mi West 31.1 mph 44.9 mph N/A Rain Heavy Rain
7:47 AM 57.2 °F - 51.8 °F 82% 28.87 in 1.5 mi WNW 34.5 mph 47.2 mph N/A Rain Rain
7:48 AM 57.2 °F - 51.8 °F 82% 28.88 in 1.5 mi WNW 36.8 mph 47.2 mph N/A Rain Light Rain
7:50 AM 55.4 °F - 50.0 °F 82% 28.89 in 1.7 mi WNW 38.0 mph 48.3 mph N/A Rain Light Rain
7:51 AM 55.4 °F - 50.0 °F 82% 28.89 in - WNW 38.0 mph 48.3 mph N/A Rain Light Rain
7:53 AM 53.6 °F - 48.2 °F 82% 28.90 in 2.5 mi WNW 38.0 mph 49.5 mph N/A Rain Light Rain
7:54 AM 53.6 °F - 48.2 °F 82% 28.91 in 3.1 mi WNW 35.7 mph 49.5 mph N/A Rain Light Rain
7:58 AM 54.0 °F - 48.4 °F 81% 28.95 in 5.0 mi WNW 32.2 mph 49.5 mph 0.09 in Rain Rain
7:59 AM 51.8 °F - 48.2 °F 88% 28.95 in 5.0 mi WNW 31.1 mph 49.5 mph N/A Rain Light Rain
8:05 AM 51.8 °F - 46.4 °F 82% 28.98 in 5.6 mi WNW 32.2 mph 48.3 mph N/A Rain Light Rain
8:12 AM 50.0 °F - 46.4 °F 87% 29.00 in 6.2 mi WNW 34.5 mph 48.3 mph N/A Rain Light Rain
8:20 AM 50.0 °F - 46.4 °F 87% 29.03 in 6.2 mi WNW 28.8 mph 46.0 mph N/A Rain Rain
8:41 AM 50.0 °F - 46.4 °F 87% 29.09 in 6.2 mi West 26.5 mph 33.4 mph N/A Rain Rain
8:47 AM 50.0 °F - 46.4 °F 87% 29.11 in 6.2 mi West 20.7 mph 32.2 mph N/A Rain Light Rain
8:58 AM 50.2 °F - 45.9 °F 85% 29.13 in 6.2 mi West 23.0 mph 32.2 mph 0.06 in Rain Light Rain
8:59 AM 50.0 °F - 46.4 °F 87% 29.13 in 6.2 mi West 20.7 mph 32.2 mph N/A Rain Light Rain
9:09 AM 50.0 °F - 46.4 °F 87% 29.14 in 6.2 mi West 24.2 mph 33.4 mph N/A Rain Light Rain
9:19 AM 50.0 °F - 44.6 °F 82% 29.15 in 6.2 mi West 23.0 mph 34.5 mph N/A Rain Light Rain
9:20 AM 50.0 °F - 44.6 °F 82% 29.15 in 6.2 mi West 25.3 mph 34.5 mph N/A Rain Light Rain
9:43 AM 50.0 °F - 44.6 °F 82% 29.18 in 6.2 mi West 19.6 mph 28.8 mph N/A   Overcast
9:49 AM 50.0 °F - 44.6 °F 82% 29.19 in 6.2 mi West 19.6 mph 25.3 mph N/A   Light Drizzle
9:50 AM 50.0 °F - 44.6 °F 82% 29.19 in 6.2 mi West 19.6 mph 25.3 mph N/A   Overcast
9:53 AM 50.0 °F - 44.6 °F 82% 29.19 in 6.2 mi West 17.3 mph - N/A Rain Light Rain
9:58 AM 50.7 °F - 44.4 °F 79% 29.21 in 6.2 mi West 18.4 mph 24.2 mph 0.02 in Rain Light Rain
10:01 AM 51.8 °F - 44.6 °F 76% 29.20 in 6.2 mi West 17.3 mph 25.3 mph N/A Rain Light Rain
10:04 AM 51.8 °F - 44.6 °F 76% 29.20 in 6.2 mi West 18.4 mph 25.3 mph N/A Rain Light Rain
10:05 AM 51.8 °F - 44.6 °F 76% 29.20 in 6.2 mi West 18.4 mph 25.3 mph N/A   Overcast
10:09 AM 51.8 °F - 44.6 °F 76% 29.20 in 6.2 mi West 19.6 mph - N/A   Overcast
10:11 AM 50.0 °F - 44.6 °F 82% 29.21 in 6.2 mi West 24.2 mph 28.8 mph N/A Rain Light Rain
10:18 AM 50.0 °F - 44.6 °F 82% 29.21 in 6.2 mi West 21.9 mph 28.8 mph N/A Rain Light Rain
10:22 AM 50.0 °F - 44.6 °F 82% 29.22 in 6.2 mi West 16.1 mph - N/A   Overcast
10:34 AM 51.8 °F - 44.6 °F 76% 29.22 in 6.2 mi West 20.7 mph 27.6 mph N/A   Mostly Cloudy
10:35 AM 51.8 °F - 44.6 °F 76% 29.22 in 6.2 mi West 23.0 mph 27.6 mph N/A   Mostly Cloudy
10:37 AM 51.8 °F - 44.6 °F 76% 29.22 in 6.2 mi WSW 19.6 mph 29.9 mph N/A   Mostly Cloudy
10:51 AM 53.6 °F - 44.6 °F 72% 29.23 in 6.2 mi WSW 18.4 mph 25.3 mph N/A   Mostly Cloudy
10:53 AM 53.6 °F - 44.6 °F 72% 29.23 in 6.2 mi WSW 21.9 mph 28.8 mph N/A   Mostly Cloudy
10:54 AM 53.6 °F - 44.6 °F 72% 29.23 in 6.2 mi WSW 21.9 mph 28.8 mph N/A   Mostly Cloudy
10:58 AM 54.0 °F - 44.1 °F 69% 29.24 in 6.2 mi WSW 20.7 mph 28.8 mph 0.00 in   Mostly Cloudy
11:21 AM 53.6 °F - 42.8 °F 67% 29.25 in 6.2 mi WSW 18.4 mph 26.5 mph N/A   Mostly Cloudy
11:32 AM 53.6 °F - 42.8 °F 67% 29.26 in 6.2 mi WSW 17.3 mph 27.6 mph N/A   Mostly Cloudy
11:34 AM 53.6 °F - 42.8 °F 67% 29.26 in 6.2 mi WSW 17.3 mph 27.6 mph N/A   Mostly Cloudy
11:35 AM 53.6 °F - 42.8 °F 67% 29.26 in 6.2 mi WSW 15.0 mph 27.6 mph N/A   Mostly Cloudy
11:43 AM 55.4 °F - 42.8 °F 63% 29.26 in 6.2 mi WSW 18.4 mph 27.6 mph N/A   Overcast
11:44 AM 55.4 °F - 42.8 °F 63% 29.26 in 6.2 mi WSW 19.6 mph 27.6 mph N/A   Overcast
11:48 AM 55.4 °F - 42.8 °F 63% 29.26 in 6.2 mi WSW 20.7 mph 28.8 mph N/A   Overcast
11:49 AM 55.4 °F - 42.8 °F 63% 29.26 in 6.2 mi WSW 23.0 mph 34.5 mph N/A   Overcast
11:50 AM 55.4 °F - 42.8 °F 63% 29.26 in 6.2 mi WSW 23.0 mph 34.5 mph N/A   Overcast
11:58 AM 55.0 °F - 42.8 °F 63% 29.28 in 6.2 mi WSW 18.4 mph 34.5 mph N/A   Overcast
11:59 AM 55.4 °F - 42.8 °F 63% 29.27 in 6.2 mi WSW 17.3 mph 34.5 mph N/A   Overcast
12:19 PM 55.4 °F - 42.8 °F 63% 29.28 in 6.2 mi WSW 20.7 mph 28.8 mph N/A   Mostly Cloudy
12:36 PM 55.4 °F - 42.8 °F 63% 29.28 in 6.2 mi WSW 21.9 mph 29.9 mph N/A   Mostly Cloudy
12:38 PM 55.4 °F - 42.8 °F 63% 29.28 in 6.2 mi WSW 23.0 mph 29.9 mph N/A   Mostly Cloudy
12:45 PM 55.4 °F - 42.8 °F 63% 29.29 in 6.2 mi WSW 20.7 mph 29.9 mph N/A   Scattered Clouds
12:58 PM 55.8 °F - 43.7 °F 64% 29.30 in 6.2 mi WSW 20.7 mph 32.2 mph N/A   Scattered Clouds
1:04 PM 55.4 °F - 42.8 °F 63% 29.30 in 6.2 mi WSW 18.4 mph 26.5 mph N/A   Mostly Cloudy
1:47 PM 55.4 °F - 42.8 °F 63% 29.32 in 6.2 mi WSW 18.4 mph 27.6 mph N/A   Mostly Cloudy
1:58 PM 55.4 °F - 42.8 °F 63% 29.32 in 6.2 mi WSW 20.7 mph 25.3 mph N/A   Scattered Clouds
2:15 PM 55.4 °F - 42.8 °F 63% 29.33 in 6.2 mi WSW 19.6 mph 26.5 mph N/A   Mostly Cloudy
2:21 PM 55.4 °F - 42.8 °F 63% 29.33 in 6.2 mi WSW 20.7 mph 28.8 mph N/A   Mostly Cloudy
2:22 PM 55.4 °F - 42.8 °F 63% 29.33 in 6.2 mi WSW 19.6 mph 28.8 mph N/A   Mostly Cloudy
2:25 PM 55.4 °F - 42.8 °F 63% 29.33 in 6.2 mi WSW 19.6 mph 28.8 mph N/A   Mostly Cloudy
2:29 PM 53.6 °F - 42.8 °F 67% 29.34 in 6.2 mi WSW 18.4 mph 28.8 mph N/A   Mostly Cloudy
2:31 PM 53.6 °F - 42.8 °F 67% 29.34 in 6.2 mi WSW 20.7 mph 28.8 mph N/A   Overcast
2:33 PM 53.6 °F - 42.8 °F 67% 29.34 in 6.2 mi WSW 21.9 mph 28.8 mph N/A   Overcast
2:39 PM 55.4 °F - 42.8 °F 63% 29.34 in 6.2 mi WSW 18.4 mph 28.8 mph N/A   Overcast
2:41 PM 55.4 °F - 42.8 °F 63% 29.34 in 6.2 mi WSW 19.6 mph 27.6 mph N/A   Overcast
2:45 PM 55.4 °F - 42.8 °F 63% 29.35 in 6.2 mi WSW 20.7 mph 26.5 mph N/A   Overcast
2:58 PM 54.1 °F - 43.0 °F 66% 29.37 in 6.2 mi WSW 18.4 mph 24.2 mph N/A   Overcast
3:58 PM 53.1 °F - 42.4 °F 67% 29.40 in 6.2 mi WSW 15.0 mph - N/A   Partly Cloudy
4:58 PM 50.9 °F - 42.1 °F 72% 29.43 in 6.2 mi WSW 11.5 mph - N/A   Clear
5:58 PM 50.4 °F - 42.6 °F 75% 29.46 in 6.2 mi SW 13.8 mph - N/A   Clear
6:58 PM 49.8 °F - 41.4 °F 73% 29.47 in 6.2 mi SW 15.0 mph - N/A   Clear
7:58 PM 49.1 °F - 39.7 °F 70% 29.49 in 6.2 mi SW 16.1 mph - N/A   Clear
8:58 PM 48.0 °F - 39.9 °F 74% 29.51 in 6.2 mi SW 12.7 mph - N/A   Clear
9:58 PM 47.1 °F - 38.7 °F 72% 29.52 in 6.2 mi SW 12.7 mph - N/A   Clear
10:58 PM 46.0 °F 40.2 °F 39.4 °F 78% 29.53 in 6.2 mi SW 12.7 mph - N/A   Clear
11:58 PM 45.3 °F 39.7 °F 39.0 °F 79% 29.54 in 6.2 mi SW 11.5 mph - N/A   Clear